User: anonymous   Login
Location: Unspecified
(0.0000°N, 0.0000°E)
Time: 09:25:43
(UTC+00:00)
Language:

UNK - Orbit

View from above orbital plane
View from above orbital plane
View from above satellite
View from above satellite

Ground track
Ground track

The orbit data is extracted from the following two-line orbital elements,

1 28479U 04046A   18018.54477107 +.00000077 +00000-0 +25366-4 0  9997
2 28479 098.2027 038.8942 0010528 169.5985 190.5435 14.60777834700880
Epoch (UTC): 18 January 2018 13:04:28
Eccentricity: 0.0010528
inclination: 98.2027°
perigee height: 683 km
apogee height: 698 km
right ascension of ascending node: 38.8942°
argument of perigee: 169.5985°
revolutions per day: 14.60777834
mean anomaly at epoch: 190.5435°
orbit number at epoch: 70088

The dashed part of the orbit path shows where the satellite is in the earth's shadow,  

DLR